Weather History for Seattle Boeing, WA

Change the Weather History Date:

Monday, December 3, 2012

  Actual Average Record
Temperature  
Mean Temperature 47 °F -  
Max Temperature 48 °F 48 °F 60 °F (1965)
Min Temperature 46 °F 39 °F 30 °F (1949)
Degree Days  
Heating Degree Days 18    
Moisture  
Dew Point 44 °F    
Average Humidity 84    
Maximum Humidity 90    
Minimum Humidity 77    
Precipitation  
Precipitation 0.41 in - - ()
Sea Level Pressure  
Sea Level Pressure 29.88 in    
Wind  
Wind Speed 11 mph (SSE)    
Max Wind Speed 18 mph    
Max Gust Speed 25 mph    
Visibility 9 miles    
Events Rain    
Averages and records for this station are not official NWS values.
T = Trace of Precipitation, MM = Missing Value Source: NWS Daily Summary

Daily Weather History Graph

Daily Weather History Graph

Search for Another Location

Airport:

Trip Planner

Search our weather history database for the weather conditions in past years. The results will help you decide how hot, cold, wet, or windy it might be!

Date:

Astronomy

Dec. 03, 2012 Rise Set
Actual Time 7:39 AM PST 4:19 PM PST
Civil Twilight 7:03 AM PST 4:54 PM PST
Nautical Twilight 6:25 AM PST 5:33 PM PST
Astronomical Twilight 5:48 AM PST 6:10 PM PST
Moon 9:23 PM PST (12/3) 10:54 AM PST (12/3)
Length of Visible Light 9h 50m
Length of Day
8h 39m
Waning Gibbous, 77% of the Moon is Illuminated
Dec 3
Waning Gibbous
Dec 6
Last Quarter
Dec 13
New
Dec 19
First Quarter
Dec 28
Full

Hourly Weather History & Observations

Time (PST) Temp. Windchill Dew Point Humidity Pressure Visibility Wind Dir Wind Speed Gust Speed Precip Events Conditions
12:53 AM 48.0 °F - 43.0 °F 83% 29.81 in 5.0 mi South 10.4 mph - 0.02 in Rain Rain
1:42 AM 48.2 °F - 44.6 °F 87% 29.80 in 9.0 mi SSE 9.2 mph 18.4 mph 0.02 in Rain Light Rain
1:53 AM 46.9 °F - 44.1 °F 90% 29.81 in 9.0 mi SSE 10.4 mph - 0.02 in Rain Light Rain
2:44 AM 48.2 °F - 42.8 °F 82% 29.83 in 10.0 mi South 13.8 mph 23.0 mph 0.00 in   Overcast
2:53 AM 48.9 °F - 43.0 °F 80% 29.84 in 10.0 mi South 13.8 mph 21.9 mph 0.00 in   Overcast
3:53 AM 48.9 °F - 42.1 °F 77% 29.85 in 10.0 mi South 17.3 mph 25.3 mph 0.00 in   Overcast
4:39 AM 48.2 °F - 42.8 °F 82% 29.86 in 8.0 mi South 13.8 mph 23.0 mph 0.03 in Rain Light Rain
4:49 AM 48.2 °F - 42.8 °F 82% 29.87 in 4.0 mi South 9.2 mph 20.7 mph 0.08 in Rain Rain
4:53 AM 48.0 °F - 43.0 °F 83% 29.88 in 4.0 mi South 11.5 mph 18.4 mph 0.10 in Rain Heavy Rain
5:53 AM 46.9 °F - 41.0 °F 80% 29.90 in 10.0 mi SSW 11.5 mph 19.6 mph 0.11 in Rain Light Rain
6:53 AM 46.4 °F 40.1 °F 41.0 °F 81% 29.90 in 10.0 mi South 15.0 mph 21.9 mph N/A   Overcast
7:53 AM 46.9 °F - 42.1 °F 83% 29.92 in 10.0 mi South 18.4 mph 25.3 mph N/A   Scattered Clouds
8:53 AM 48.0 °F - 42.1 °F 80% 29.95 in 10.0 mi SSE 11.5 mph 19.6 mph N/A   Overcast
9:53 AM 46.9 °F - 44.1 °F 90% 29.98 in 10.0 mi SSE 8.1 mph - 0.00 in   Overcast
10:53 AM 48.0 °F - 44.1 °F 86% 30.01 in 10.0 mi SSE 11.5 mph - N/A   Overcast
11:53 AM 48.9 °F - 44.1 °F 83% 30.01 in 10.0 mi SE 11.5 mph - N/A   Overcast
12:53 PM 48.9 °F - 45.0 °F 86% 29.99 in 7.0 mi SE 9.2 mph - 0.00 in Rain Light Rain
1:53 PM 48.9 °F - 45.0 °F 86% 29.97 in 10.0 mi SE 10.4 mph - 0.01 in Rain Light Rain
2:53 PM 48.9 °F - 45.0 °F 86% 29.95 in 10.0 mi ESE 8.1 mph - 0.01 in Rain Light Rain
3:53 PM 48.0 °F - 45.0 °F 89% 29.94 in 7.0 mi SE 8.1 mph - 0.03 in Rain Light Rain
4:53 PM 48.0 °F - 45.0 °F 89% 29.92 in 5.0 mi SE 5.8 mph - 0.04 in Rain Light Rain
5:53 PM 48.9 °F - 44.1 °F 83% 29.90 in 10.0 mi ESE 8.1 mph - 0.02 in Rain Light Rain
6:53 PM 48.0 °F - 44.1 °F 86% 29.88 in 10.0 mi ESE 8.1 mph - 0.01 in   Overcast
7:53 PM 48.0 °F - 45.0 °F 89% 29.85 in 9.0 mi SE 8.1 mph - 0.01 in Rain Light Rain
8:53 PM 48.0 °F - 44.1 °F 86% 29.81 in 10.0 mi SE 6.9 mph - 0.01 in Rain Light Rain
9:53 PM 48.2 °F - 42.8 °F 82% 29.75 in 10.0 mi SE 3.5 mph - N/A   Overcast
10:53 PM 48.0 °F - 43.0 °F 83% 29.69 in 10.0 mi SE 6.9 mph - 0.00 in Rain Light Rain
11:53 PM 48.0 °F - 44.1 °F 86% 29.65 in 9.0 mi Calm Calm - 0.02 in Rain Light Rain